GFSCGP_500_rhum_102.txt.gz
RH
34 31 28 24 19 16 15 10 10 16 10 6 6 5 5 5 5 5 6 8 9 10 15 47 67 62 60 62 44 71 11 7 5 6 15 28 57 38 10 4 4 5 7 15
34 32 25 19 15 10 6 5 5 3 3 4 4 4 4 6 5 6 9 8 10 19 24 39 62 70 56 56 46 45 9 7 5 6 17 29 37 30 20 6 9 8 17 22
30 25 15 11 9 6 4 3 3 4 3 3 6 7 6 5 6 7 8 7 13 40 37 52 64 54 78 68 61 30 9 7 6 7 17 17 17 40 40 16 6 8 11 20
20 14 8 6 5 4 4 4 7 6 5 6 18 22 4 6 7 6 7 14 29 64 66 56 61 70 70 65 49 61 19 11 7 10 7 16 24 21 22 9 7 10 12 16
11 7 5 4 3 3 4 5 7 12 14 15 14 64 4 6 5 7 23 49 65 78 87 68 74 63 73 49 33 27 10 11 11 13 11 18 21 18 12 5 6 9 11 21
7 5 4 3 4 4 6 8 9 35 62 18 36 75 10 17 13 27 80 73 83 79 74 47 56 24 49 42 25 45 28 12 13 13 13 25 22 7 5 6 7 8 14 23
4 3 2 8 8 6 12 46 36 69 45 46 95 79 34 28 55 77 94 96 98 99 69 51 28 30 9 12 19 12 25 21 11 9 11 14 6 6 5 7 7 9 22 29
2 2 5 9 25 13 38 65 77 81 59 65 84 44 42 45 67 69 99 98 99 98 98 76 68 94 41 47 47 47 24 8 13 27 34 12 6 6 8 9 7 19 32 38
3 3 12 20 35 41 54 72 87 74 56 75 90 100 100 95 100 99 95 98 99 97 97 97 98 78 59 39 30 23 17 23 50 40 23 19 21 15 11 14 12 32 42 75
16 16 53 84 53 71 48 86 99 62 70 93 100 100 100 100 98 100 98 98 97 96 97 98 96 64 94 94 80 40 24 21 48 73 64 38 43 44 41 40 29 44 64 89
16 26 60 67 78 69 87 92 100 72 75 100 100 100 100 100 97 98 98 98 98 100 98 87 90 84 65 91 95 93 82 61 70 42 56 58 58 47 60 36 41 59 95 100
63 28 44 71 82 93 100 83 88 81 97 100 100 100 100 100 100 100 96 94 100 100 93 79 78 64 29 68 91 95 94 73 51 39 71 71 72 50 34 41 75 94 99 56
49 72 53 54 83 96 100 94 81 100 100 100 100 100 100 100 100 99 100 92 96 91 82 75 48 82 70 67 94 62 49 33 48 68 66 72 62 39 49 73 90 98 66 26
52 82 90 97 100 100 100 100 100 100 100 91 99 100 100 100 100 97 99 100 94 90 75 76 70 52 61 59 62 45 48 44 46 54 45 58 49 68 91 100 96 76 69 33
85 74 73 91 100 96 78 94 100 89 95 98 100 100 100 100 100 96 98 98 100 92 88 44 80 52 44 20 62 58 38 34 48 34 35 40 62 82 89 97 91 81 59 27
100 100 66 66 79 96 99 82 53 100 100 100 100 100 100 100 92 87 85 72 46 28 32 67 29 24 24 12 27 55 42 30 38 43 46 50 78 84 95 96 98 82 47 28
100 100 100 76 87 89 78 100 100 99 100 100 99 100 94 87 80 77 67 65 54 32 20 16 13 12 14 19 23 37 43 46 45 52 53 60 72 90 81 98 95 89 54 31
99 88 100 100 76 100 98 100 100 100 100 100 99 94 93 94 78 76 68 66 61 33 19 14 11 10 11 16 36 38 49 64 57 60 59 61 88 72 82 97 98 98 65 41
92 88 100 100 100 97 99 100 97 88 85 97 92 74 82 85 69 70 70 64 40 25 17 13 11 11 11 17 22 38 54 59 68 72 75 80 83 72 93 97 97 96 81 55
100 100 100 100 100 97 94 79 72 65 58 50 47 45 44 47 58 48 39 36 33 24 18 13 10 11 18 17 19 22 22 47 57 70 81 89 99 99 80 100 97 97 96 69
98 100 100 100 100 97 66 56 57 54 41 36 34 32 31 28 29 33 31 29 26 22 19 17 14 13 11 11 12 17 25 37 38 72 85 89 89 90 97 74 98 100 98 77
100 100 100 94 99 99 71 49 34 26 23 22 19 17 16 18 20 22 24 24 24 22 18 17 17 18 17 16 17 21 24 47 65 59 74 100 88 79 87 74 87 96 94 71
96 100 100 91 67 34 24 16 14 15 14 12 11 12 18 23 27 32 41 34 27 22 20 20 21 23 20 29 40 70 85 100 97 95 93 90 99 99 99 100 99 98 100 91
100 99 94 63 15 14 13 13 12 12 10 10 10 17 32 47 91 92 94 85 76 74 67 70 73 62 69 63 87 98 92 95 99 96 99 100 95 98 98 99 100 99 97 98
66 38 19 16 20 17 11 10 9 9 10 18 27 32 52 95 100 100 100 100 100 98 98 95 93 93 96 98 99 100 100 100 98 100 98 100 98 99 98 98 99 100 99 100
46 36 23 16 15 13 11 10 14 25 33 44 49 52 99 97 98 98 96 94 90 93 92 92 95 96 98 96 97 97 95 98 100 100 100 100 100 100 100 99 100 99 98 98

GFSCGP_500_rhum_105.txt.gz
RH
79 64 50 38 36 34 32 30 28 26 22 21 19 18 15 14 13 12 11 10 9 7 5 4 3 6 23 47 60 70 71 55 56 55 81 16 14 22 29 24 41 20 12 6
60 53 42 39 36 34 30 26 24 22 14 9 8 8 8 6 5 4 4 4 3 3 4 4 4 5 8 22 53 72 66 49 61 52 83 26 12 18 40 42 59 50 34 10
54 49 44 40 34 27 22 15 11 7 6 5 4 5 6 4 3 2 2 3 4 4 4 6 10 8 8 10 25 45 65 58 57 53 52 37 8 20 38 48 69 49 46 42
56 50 38 27 21 15 13 8 7 5 4 4 4 5 4 3 2 3 5 8 7 6 7 9 21 10 11 14 21 34 70 59 55 39 52 11 8 14 38 71 66 74 73 68
43 31 25 19 13 8 8 6 5 4 4 4 3 4 2 4 11 44 47 27 13 8 7 8 13 27 26 42 54 54 70 62 39 37 13 12 12 28 59 38 51 52 47 48
28 23 14 10 9 6 4 4 3 4 6 6 3 10 11 49 69 76 70 22 9 7 7 14 25 54 36 54 64 68 84 61 58 33 31 10 16 25 25 28 22 19 26 21
16 11 9 8 7 4 4 5 6 7 7 6 16 20 23 49 78 74 51 17 8 8 17 38 55 84 72 65 65 74 84 45 35 54 18 11 9 21 34 20 19 22 17 21
13 10 5 4 5 4 3 8 10 9 15 29 52 53 73 98 100 69 76 27 16 17 66 99 97 99 98 85 63 82 55 18 22 16 13 14 12 17 25 53 28 13 6 6
4 4 4 6 6 10 12 16 60 35 51 42 54 75 99 100 72 68 92 58 49 80 100 98 100 97 90 75 68 36 69 22 12 11 10 10 14 25 48 67 70 6 6 7
4 3 7 9 11 23 24 86 76 96 80 47 57 100 100 100 100 83 81 94 90 96 96 99 99 100 98 96 58 21 45 52 33 26 32 58 49 52 91 69 43 20 27 17
5 6 37 32 32 47 71 81 80 98 95 82 91 97 100 100 100 100 98 100 99 97 98 98 98 96 97 98 86 64 59 30 42 46 24 54 72 97 93 73 60 60 66 39
13 30 52 51 39 76 80 79 100 94 88 63 94 99 100 100 100 100 100 89 97 100 98 99 99 99 92 86 93 99 85 43 46 58 74 53 97 96 96 92 94 75 71 38
36 82 47 56 88 71 98 100 99 92 88 99 100 100 100 100 100 100 100 99 82 99 98 99 90 78 79 76 60 77 95 95 97 96 91 74 86 80 94 98 96 58 41 45
71 88 87 76 70 96 100 100 87 85 100 100 100 100 100 100 100 100 100 100 99 97 98 98 83 75 62 83 72 76 94 97 98 97 98 97 99 99 99 97 85 45 66 84
100 100 100 100 96 100 100 100 100 100 94 100 100 100 100 100 99 98 100 100 98 100 100 69 68 84 78 75 68 59 96 95 73 65 63 94 95 88 89 80 63 62 86 95
98 100 98 78 99 100 100 89 92 100 98 100 100 100 100 100 100 100 98 95 97 74 63 73 56 73 86 63 81 52 70 86 73 68 92 93 90 75 73 61 78 80 84 96
100 100 99 77 94 99 98 97 100 96 95 100 100 99 99 99 95 94 91 88 66 61 48 26 26 50 24 54 64 32 33 64 70 92 87 98 58 47 47 67 94 94 99 94
100 100 100 100 98 98 93 94 93 100 100 100 100 96 93 92 92 83 79 70 56 58 45 30 15 12 23 14 20 37 30 44 55 53 36 44 51 54 52 63 79 85 94 98
100 100 100 100 100 97 94 85 96 100 100 100 99 85 81 85 76 67 68 67 64 59 48 31 20 16 12 13 13 22 44 40 44 50 54 47 40 36 46 66 78 78 79 95
92 100 100 100 100 100 100 97 95 88 60 56 50 51 48 49 53 56 51 41 36 33 28 22 18 12 10 12 16 18 26 28 37 36 37 41 47 46 45 45 51 62 60 80
98 100 100 100 100 96 70 59 49 52 43 36 31 26 23 25 26 27 30 32 32 28 26 23 19 16 13 11 11 10 11 11 15 18 22 36 48 59 60 58 75 98 80 96
89 100 98 97 95 74 67 65 41 29 24 22 18 13 10 11 14 16 20 23 26 26 24 23 21 18 16 15 13 11 11 10 9 11 16 21 24 47 54 53 55 77 88 98
87 86 86 77 80 86 38 30 24 19 15 11 13 12 10 12 19 23 25 35 34 30 26 31 28 23 20 17 16 13 16 16 23 33 46 66 60 47 48 98 100 100 97 99
78 82 80 79 39 24 14 12 12 12 10 11 11 12 18 23 28 75 85 82 78 68 65 65 68 70 66 64 49 51 58 70 72 81 100 99 100 98 91 75 75 83 99 100
94 96 88 54 17 13 12 11 11 10 11 15 19 26 33 39 73 88 96 94 94 91 87 85 84 85 86 86 86 87 91 95 93 91 91 88 95 98 100 100 98 100 96 98
95 92 41 17 17 13 11 10 12 11 9 10 28 48 42 60 84 93 84 78 80 79 85 85 85 83 80 78 78 79 82 84 86 88 91 92 94 98 99 100 99 100 99 99

GFSCGP_500_rhum_108.txt.gz
RH
86 88 91 100 92 81 68 65 62 57 50 45 35 32 29 26 22 19 17 14 11 10 9 7 8 11 11 8 6 6 7 8 20 28 45 63 59 55 57 60 52 36 41 48
82 86 98 88 73 71 67 59 52 46 38 35 33 33 27 22 16 14 10 8 6 7 6 5 5 4 6 6 6 7 5 5 14 40 19 59 49 51 94 53 41 40 37 48
97 91 89 71 65 58 48 46 45 45 39 29 22 23 19 14 12 6 5 5 6 5 4 3 3 3 3 4 5 5 5 4 4 25 43 50 59 54 82 50 30 42 34 32
100 98 78 66 54 50 50 42 40 35 26 21 14 15 19 10 7 6 5 4 3 2 2 2 2 2 2 3 4 4 3 4 4 14 30 65 65 55 48 93 33 37 40 36
100 96 98 98 66 51 47 36 27 21 13 10 14 10 9 6 6 4 3 3 8 5 3 3 3 3 4 6 8 6 3 3 4 6 18 71 59 50 30 91 28 30 43 59
93 97 97 78 64 50 30 22 15 11 9 8 7 6 7 5 4 4 20 54 53 37 21 16 8 5 6 7 10 8 6 4 5 16 49 71 56 42 51 48 19 26 45 48
85 85 92 57 35 23 17 13 10 9 6 5 5 5 6 5 13 60 62 92 57 44 14 23 9 7 7 7 9 12 11 12 17 54 77 67 37 31 29 26 27 32 49 72
95 73 39 27 16 12 10 8 6 8 6 8 11 11 14 40 69 68 66 92 61 30 11 10 15 8 9 8 15 20 23 29 60 87 81 67 41 46 26 28 32 37 64 53
55 42 26 12 8 6 6 8 10 9 10 12 19 53 48 86 100 87 73 74 78 80 13 11 17 31 46 57 56 74 61 71 82 84 83 60 83 72 32 28 29 40 42 37
19 13 7 6 5 4 4 10 22 44 38 58 58 56 71 100 100 100 86 84 98 92 89 70 97 99 100 97 96 98 98 82 93 99 89 79 86 67 32 18 20 36 38 52
5 4 4 4 5 14 21 59 48 68 75 96 59 69 87 90 92 100 98 100 100 97 100 98 98 98 95 100 100 98 97 92 85 82 74 64 52 51 33 25 24 23 44 84
4 3 4 14 27 59 94 97 89 100 100 99 81 69 87 98 98 100 97 100 100 100 98 100 99 99 99 100 99 97 99 88 84 80 70 45 48 36 16 25 44 70 79 95
9 33 30 62 96 76 96 95 100 100 100 89 88 84 100 99 100 100 100 99 100 99 100 100 98 99 98 97 96 97 98 99 100 67 57 59 64 34 53 69 71 81 91 87
38 65 46 90 89 96 90 99 84 84 90 87 93 100 100 100 100 100 100 100 100 100 100 100 98 98 96 98 97 100 97 97 99 78 80 95 90 94 71 97 90 92 96 98
94 100 100 100 85 76 93 100 100 98 90 100 99 100 100 100 100 100 99 100 100 99 97 84 74 72 60 62 74 83 87 92 98 97 95 98 94 95 92 92 94 97 97 97
100 100 100 96 65 77 100 100 99 100 100 94 100 100 100 99 100 100 98 100 100 99 68 85 65 47 81 96 85 82 96 98 96 99 99 98 98 98 97 98 97 98 96 73
100 100 100 99 100 100 100 100 92 99 99 100 100 100 98 98 96 90 90 94 97 66 68 28 20 58 60 42 82 97 97 69 88 96 94 94 92 88 95 95 94 95 88 69
100 100 100 100 100 100 92 99 89 83 93 98 95 99 86 90 89 79 82 76 74 74 60 41 26 15 19 33 22 39 91 82 64 74 96 98 98 97 97 92 91 74 62 78
100 100 98 100 100 100 85 63 72 100 99 89 97 91 72 77 77 64 57 59 59 56 49 42 32 21 12 20 41 20 29 68 84 62 64 84 98 92 96 99 69 62 59 75
100 100 93 99 100 100 100 98 95 97 90 80 61 52 45 41 29 31 37 38 36 34 39 32 25 21 15 12 12 25 34 32 31 42 64 59 67 93 65 100 100 67 65 65
100 100 100 100 100 100 100 100 90 84 51 40 27 21 18 17 18 18 22 24 27 32 27 27 29 22 18 17 14 13 12 11 14 13 15 24 42 60 74 72 65 64 58 44
100 100 100 100 100 100 74 66 68 42 26 22 15 12 9 7 8 12 15 18 23 27 25 26 23 22 22 20 18 16 15 14 12 11 11 11 13 22 31 37 53 68 66 52
100 99 97 88 93 68 66 54 30 23 16 12 13 11 9 10 14 12 24 29 34 40 37 40 34 26 31 38 38 32 27 24 24 22 21 24 28 32 63 67 62 50 49 58
100 91 76 79 78 70 39 20 13 12 12 10 10 9 11 19 20 30 58 70 78 79 75 74 77 77 66 62 63 65 68 77 73 76 79 83 85 96 100 97 100 100 90 65
94 88 76 74 45 25 13 11 10 10 11 9 10 17 22 27 41 66 78 88 84 87 90 90 90 90 88 85 80 79 78 79 77 77 81 86 88 90 91 94 100 100 100 98
94 86 89 94 26 14 12 11 13 9 8 8 20 31 45 54 62 72 76 77 76 79 80 83 84 77 66 55 51 51 47 45 43 40 40 43 43 48 62 71 76 79 85 90

GFSCGP_500_rhum_111.txt.gz
RH
50 51 41 45 45 53 58 61 64 80 84 70 65 38 53 54 51 46 33 30 27 25 23 21 20 19 18 18 17 16 15 14 12 10 8 8 7 17 53 68 95 93 74 66
58 51 61 55 60 67 67 65 70 79 78 67 58 38 44 45 44 40 36 31 25 20 15 13 11 9 8 8 8 8 10 13 13 12 9 8 7 8 32 65 74 88 75 65
64 70 77 86 86 93 95 93 96 77 70 62 57 47 47 47 45 35 26 20 17 17 17 14 10 8 6 6 5 5 4 6 9 10 10 9 8 6 7 21 66 78 83 71
85 90 93 100 100 100 94 100 89 79 68 69 55 53 46 47 41 32 19 15 14 12 10 10 8 6 4 3 3 2 3 4 5 6 8 8 7 7 5 12 50 71 72 92
81 73 76 92 100 99 96 98 93 94 99 89 70 59 37 33 25 19 15 12 10 8 6 5 4 3 3 3 2 2 3 3 4 6 6 7 5 6 4 12 47 78 72 83
84 94 96 88 98 100 99 98 99 98 100 88 43 23 29 21 15 12 12 8 5 4 4 13 12 18 17 16 8 4 3 4 5 6 6 5 5 5 5 10 58 66 45 72
96 94 86 98 100 99 97 97 98 78 33 29 20 16 12 12 7 6 4 4 4 15 37 42 28 12 16 26 18 11 4 4 6 6 7 6 4 4 5 16 49 63 46 43
93 98 100 100 100 100 96 87 44 22 18 14 9 7 6 5 5 19 24 41 33 44 39 56 85 19 20 24 37 16 17 6 8 8 8 7 6 10 12 47 48 60 39 61
98 97 100 100 96 88 55 22 16 10 7 6 6 7 5 7 64 84 72 61 53 52 64 84 84 28 18 42 58 48 24 28 20 11 14 11 12 35 42 61 64 44 42 43
99 97 85 59 48 26 10 7 6 6 9 13 30 25 24 60 90 94 70 72 84 71 80 78 77 35 42 51 54 68 53 58 44 44 50 36 46 69 73 72 34 30 37 33
95 89 44 20 7 5 4 7 16 20 38 77 74 75 52 85 97 97 63 75 98 88 96 98 99 98 98 99 95 99 74 72 71 65 68 68 73 77 89 72 56 61 32 29
12 8 5 6 6 12 27 59 52 62 93 100 99 87 94 100 94 74 83 87 98 94 100 100 100 99 100 100 100 100 98 100 99 100 98 92 96 84 83 86 99 95 44 39
4 6 20 31 63 51 84 85 94 83 93 100 95 99 100 100 100 100 100 100 96 98 100 99 100 98 99 96 96 94 94 99 97 91 90 89 97 95 98 92 97 95 59 61
7 24 37 39 66 87 78 58 52 57 91 100 98 100 100 100 100 100 100 99 100 100 99 100 100 100 100 95 69 99 99 99 100 99 100 100 100 96 100 92 90 82 48 48
37 65 65 55 58 58 69 90 81 99 99 100 99 100 100 100 100 100 100 98 100 97 99 100 100 94 75 79 71 85 79 96 97 95 99 97 97 96 97 97 78 54 32 52
97 100 99 52 45 51 95 100 100 100 97 98 100 100 100 100 100 100 95 100 90 98 44 94 93 82 68 94 80 80 83 76 88 98 98 93 99 98 97 96 96 85 89 96
100 98 75 60 76 73 100 100 99 100 100 100 100 100 100 99 99 87 82 74 94 85 37 75 19 31 68 37 44 66 95 93 84 88 100 90 94 99 95 85 96 99 97 97
96 84 65 92 84 97 100 100 100 100 100 100 100 99 84 85 78 67 63 59 51 56 44 37 20 13 16 29 36 32 51 92 99 89 98 99 97 99 94 98 98 97 98 97
98 94 100 70 84 100 100 100 88 99 100 100 95 75 65 70 65 59 49 42 40 40 37 30 24 19 13 12 35 52 51 72 92 98 100 98 99 99 98 97 98 96 98 97
100 99 99 91 96 100 100 100 78 97 100 100 77 46 37 33 29 30 32 35 33 30 30 30 26 23 20 17 14 16 40 49 71 49 81 97 96 96 89 100 98 98 98 96
100 86 99 99 100 100 100 100 100 100 85 56 31 23 19 16 17 22 22 23 23 27 31 30 26 25 26 22 21 19 20 16 14 19 49 53 64 82 62 71 98 90 97 100
100 100 95 98 100 100 100 100 100 82 47 24 16 12 11 8 8 10 15 17 19 21 23 24 26 28 27 24 27 26 25 23 20 18 14 14 15 13 22 20 31 44 57 70
100 100 100 100 100 100 99 100 73 35 20 14 12 9 8 8 11 17 35 40 45 47 47 51 43 42 44 48 52 46 44 43 48 46 54 56 50 51 45 41 47 60 48 48
100 100 100 100 100 91 85 36 19 13 11 10 10 10 10 16 21 29 44 57 64 68 68 70 77 75 75 73 75 79 82 79 74 75 78 83 88 92 95 98 99 95 90 94
98 100 100 100 97 92 34 15 11 10 8 9 10 13 18 26 43 64 66 74 82 85 87 88 90 87 80 71 65 59 51 43 36 32 32 31 31 35 41 49 58 67 73 80
99 100 100 100 50 39 15 11 12 8 8 8 11 19 30 42 57 85 85 77 83 88 90 88 71 50 35 26 22 18 15 12 11 11 11 11 11 11 10 10 11 12 13 16

GFSCGP_500_rhum_114.txt.gz
RH
58 60 53 49 40 45 51 54 41 40 38 44 48 38 63 56 53 59 65 61 53 46 38 30 26 22 20 19 18 17 14 13 12 11 11 12 12 25 40 34 31 33 46 67
74 68 68 51 59 55 52 55 61 58 49 37 40 26 70 61 64 60 56 55 52 51 48 44 35 29 27 24 23 22 19 17 16 15 14 12 11 11 14 12 10 16 28 58
72 62 49 48 47 61 77 78 85 84 78 70 63 29 71 51 56 61 58 52 47 45 44 41 35 30 26 21 16 14 12 12 13 16 20 18 15 14 12 10 8 8 15 30
85 75 72 66 66 78 88 96 100 100 95 89 81 49 58 71 66 59 65 56 53 50 44 36 28 21 18 16 13 11 9 8 7 6 18 32 37 16 10 10 9 10 18 15
73 60 69 84 82 83 84 77 82 89 95 91 73 88 39 64 65 64 62 58 38 31 25 21 18 17 15 13 11 9 7 6 4 4 5 6 6 7 6 8 8 7 8 9
87 85 87 94 97 98 98 98 98 99 93 85 80 96 61 70 60 40 28 25 24 22 20 16 13 11 8 6 5 5 4 4 3 3 3 3 4 5 4 4 8 8 8 6
93 91 88 99 100 93 99 93 92 90 93 83 72 76 74 61 32 30 26 20 15 12 8 6 5 4 5 22 19 11 13 17 21 11 6 4 4 4 4 4 6 8 8 6
85 94 89 100 100 99 94 97 100 95 99 94 74 48 23 22 19 18 9 5 4 4 12 16 12 31 43 26 8 10 8 14 20 15 7 6 6 5 4 5 6 8 8 6
81 92 99 100 95 100 97 99 94 77 50 33 25 14 12 9 6 5 5 32 49 38 47 37 37 58 40 11 12 23 41 40 26 28 10 5 10 7 5 6 6 7 6 7
97 100 100 96 92 92 91 75 44 21 11 9 24 14 16 10 10 16 72 58 51 69 53 40 59 75 45 36 33 35 57 70 49 27 9 14 18 12 11 7 7 7 7 20
100 100 93 97 82 50 20 7 6 6 10 18 60 69 94 54 56 74 72 77 84 85 66 93 92 100 90 80 81 91 99 82 92 51 28 35 33 30 34 20 26 33 38 70
100 72 14 8 6 5 7 10 13 23 85 68 99 64 79 80 87 96 100 95 91 85 73 89 100 93 96 99 99 100 99 100 98 94 76 80 60 55 86 100 65 71 78 78
24 7 5 7 22 37 39 53 52 57 79 95 89 98 98 100 100 100 100 100 100 96 73 88 100 98 98 98 100 98 100 100 99 100 99 94 100 92 66 45 60 90 98 100
4 4 8 22 31 62 56 71 66 69 75 94 100 97 100 100 100 100 100 100 100 100 98 89 100 100 99 97 99 99 100 100 99 99 100 99 100 100 96 73 85 93 98 100
10 27 39 30 26 51 76 91 89 78 90 98 100 100 100 100 100 100 100 100 100 100 100 100 100 92 80 81 89 100 100 100 98 98 95 98 98 97 100 99 82 83 89 100
35 61 57 44 43 54 65 83 94 100 100 100 100 100 100 100 100 99 98 100 98 100 98 99 99 69 67 76 80 87 82 96 99 100 99 93 96 95 92 92 88 85 85 91
66 73 56 62 52 63 88 99 100 100 100 100 100 100 100 100 78 72 53 70 92 60 82 69 18 26 54 42 53 45 89 95 89 97 99 99 100 99 98 99 95 93 96 94
76 76 74 81 62 71 89 100 100 100 98 100 100 100 100 77 69 53 44 45 37 27 28 25 17 13 21 23 38 66 50 86 100 97 96 98 97 96 99 96 97 97 97 95
78 86 87 62 85 74 93 100 100 100 100 100 100 70 66 64 48 45 38 36 37 33 26 23 24 20 16 13 34 50 57 79 78 83 98 99 96 99 99 98 99 98 98 99
88 81 94 81 98 80 88 99 100 100 100 100 99 63 45 39 34 30 29 31 32 31 29 28 26 25 22 21 17 16 26 45 59 76 82 94 96 98 96 98 99 98 97 99
100 96 72 100 98 90 90 100 98 100 100 86 46 35 30 31 25 23 24 27 23 25 27 30 29 26 25 26 23 22 21 23 22 20 28 41 56 88 97 93 98 98 98 99
100 96 93 94 96 96 100 98 99 100 98 40 25 18 18 18 17 21 28 25 18 19 20 21 24 26 30 33 38 43 40 38 31 32 32 35 34 36 68 93 74 91 93 81
99 94 87 90 87 95 98 98 100 100 40 25 19 16 16 13 12 19 26 33 35 34 33 34 36 36 39 54 55 62 72 72 66 63 63 63 66 67 59 58 48 46 54 73
100 100 92 88 88 100 99 100 99 47 24 18 16 15 16 15 15 23 33 41 48 58 62 61 67 76 77 73 73 69 58 50 40 38 37 32 30 31 37 50 58 61 66 73
98 100 99 96 97 100 100 72 41 22 18 15 14 16 15 18 19 35 52 67 74 80 85 85 90 87 76 59 40 23 18 15 13 12 11 11 12 13 14 13 13 13 13 15
89 97 100 100 100 99 54 26 16 15 13 11 12 14 18 19 27 40 61 75 79 88 96 98 86 56 31 22 17 14 13 12 12 11 11 11 10 10 10 10 9 9 8 8

GFSCGP_500_rhum_117.txt.gz
RH
32 31 31 35 33 29 36 56 52 50 53 48 42 43 52 55 53 45 52 58 71 72 70 68 61 52 43 30 19 15 15 13 12 10 10 16 30 50 44 52 31 44 60 63
38 29 44 43 43 40 60 68 69 54 45 40 37 26 36 57 65 61 51 54 54 58 59 61 60 59 56 47 36 26 20 17 14 14 12 12 10 14 16 38 33 29 33 27
58 74 53 40 62 71 63 68 62 58 52 52 49 33 70 74 68 68 56 58 64 69 65 59 58 56 51 50 49 39 30 25 22 20 18 18 17 14 12 12 12 11 11 10
61 79 82 100 78 91 82 79 62 59 68 68 78 73 62 91 92 86 52 39 55 60 61 63 64 61 52 48 45 44 41 36 29 26 24 23 21 19 17 15 12 12 11 12
58 55 45 71 89 86 74 75 78 86 82 85 48 100 57 90 100 100 50 51 69 65 64 64 66 76 58 52 47 44 37 30 26 22 17 15 15 18 18 24 26 17 15 38
47 85 69 76 75 82 88 87 84 98 100 91 69 98 54 90 67 100 80 66 61 58 47 38 34 30 40 52 38 21 20 18 16 15 14 14 17 14 11 10 10 22 33 22
74 80 83 83 96 92 85 99 91 91 100 80 92 100 98 63 58 63 36 26 35 29 29 24 19 14 10 8 7 7 7 6 5 5 4 4 5 7 11 9 8 12 21 36
80 100 95 72 77 88 98 91 95 95 100 100 100 83 100 59 49 42 30 21 15 11 7 5 4 4 4 3 3 4 8 7 7 6 6 7 6 4 4 4 4 5 19 14
100 99 83 81 76 82 94 93 100 97 97 95 81 73 82 52 26 16 10 6 4 4 5 7 11 15 22 18 14 15 17 9 12 12 14 20 20 19 18 9 5 5 8 7
100 99 100 81 71 88 92 100 98 81 66 60 75 100 100 50 51 29 29 17 18 51 55 44 48 46 39 36 58 24 15 17 26 40 50 36 27 23 21 16 16 8 6 20
88 76 97 72 91 88 64 46 32 16 11 24 86 100 100 100 98 87 70 69 82 78 66 72 73 67 82 82 93 68 58 31 47 60 77 45 7 20 16 8 17 31 26 44
89 88 92 92 85 55 7 6 7 6 16 83 100 98 76 95 100 100 97 100 94 97 90 85 93 90 93 99 93 79 79 85 94 98 99 56 15 7 10 24 87 80 80 84
94 84 67 35 9 11 23 17 24 30 84 85 98 84 100 100 100 100 100 100 100 100 100 94 91 99 100 96 93 90 89 98 95 98 90 96 74 36 19 64 100 99 90 100
84 28 6 8 34 36 72 33 48 65 62 85 96 99 100 100 100 100 95 100 100 100 100 95 100 100 100 94 97 97 100 94 99 96 92 97 98 93 44 46 99 95 74 61
8 8 10 16 21 23 35 60 78 82 91 88 100 100 100 100 100 100 100 100 100 100 100 100 100 98 96 91 99 96 95 98 98 99 97 95 100 99 84 93 84 75 62 59
9 15 34 38 45 45 36 62 79 73 74 97 100 100 100 100 100 100 100 100 100 100 100 100 96 48 70 70 63 60 98 93 100 98 98 99 92 96 96 93 90 60 66 66
14 37 50 64 61 62 48 56 74 93 100 100 100 100 100 100 99 100 100 100 100 100 100 58 21 28 44 43 44 41 74 93 98 100 94 99 100 98 98 97 96 84 84 88
45 66 81 94 84 54 46 88 100 100 100 100 100 100 100 97 99 100 98 100 100 100 85 68 20 14 24 35 54 70 70 90 94 88 98 98 98 99 98 98 99 99 99 100
74 81 98 94 90 63 75 100 100 100 100 100 100 100 94 74 71 77 77 80 86 72 59 41 29 23 20 17 26 44 46 62 64 82 91 98 96 100 98 99 99 100 98 94
95 98 87 100 92 94 90 100 100 100 100 100 100 87 58 54 54 56 56 56 55 44 45 41 35 31 26 23 23 21 19 19 21 24 33 80 96 97 99 99 99 99 99 98
88 100 81 99 100 94 98 98 98 100 92 100 100 65 42 47 50 38 43 42 47 48 43 42 42 32 31 31 34 30 35 44 45 29 28 26 48 86 97 100 97 97 96 96
68 98 95 90 96 93 98 93 98 100 100 97 52 38 31 37 39 38 33 39 45 44 56 45 46 48 62 59 58 57 60 71 64 66 67 62 60 49 56 94 97 99 99 94
63 88 97 100 96 99 100 95 92 98 100 66 32 23 18 23 23 25 29 39 51 58 58 56 61 73 78 75 74 72 68 64 57 53 49 50 50 54 55 58 74 95 98 100
58 88 93 84 76 87 88 96 96 96 95 38 24 21 19 20 24 29 39 54 63 67 64 64 76 86 82 73 62 45 26 20 15 16 15 14 14 15 17 21 22 22 31 46
61 69 91 88 86 84 74 85 98 100 40 29 21 17 19 22 19 24 28 39 51 64 78 86 88 89 76 50 28 19 15 13 12 11 11 11 11 11 11 10 10 9 9 9
60 61 96 100 88 88 95 100 99 57 32 23 22 22 20 21 22 26 30 42 59 66 72 81 90 81 46 23 18 14 14 13 14 14 14 15 14 13 12 12 12 12 12 11

GFSCGP_500_rhum_120.txt.gz
RH
24 26 28 28 30 26 24 26 25 31 48 100 50 42 30 40 49 45 42 43 48 55 39 48 55 57 68 70 65 57 49 47 38 22 15 12 11 12 21 47 49 96 67 91
28 28 31 29 32 36 37 37 32 24 46 74 44 56 30 66 57 50 50 47 39 42 37 42 53 60 57 56 60 65 65 60 54 39 25 15 12 10 10 12 26 41 41 79
32 36 40 39 37 39 43 73 54 58 51 60 73 67 63 60 51 82 92 91 74 57 52 72 70 59 57 60 62 60 57 57 56 54 44 30 18 13 11 11 12 34 28 48
38 58 63 61 43 61 34 65 60 58 54 61 60 70 67 48 54 91 100 89 48 52 72 74 65 59 53 52 56 58 58 59 55 52 50 46 34 26 18 14 14 13 13 12
51 49 56 52 50 55 51 62 59 77 66 80 33 94 70 62 76 87 70 53 50 62 69 78 72 66 68 64 56 50 46 54 66 54 47 47 45 39 30 24 21 18 18 22
40 53 50 50 44 44 64 80 93 94 94 92 54 78 52 76 65 74 92 98 93 86 67 60 57 60 59 56 52 52 51 51 65 66 53 46 45 42 37 32 28 26 24 21
28 25 28 28 31 59 70 86 100 93 85 84 55 100 100 80 49 64 84 100 98 76 55 46 34 29 32 30 30 38 40 33 26 27 47 54 49 47 41 33 27 26 24 35
31 65 83 79 52 47 88 100 100 94 74 66 71 82 100 90 53 74 74 78 71 37 21 17 9 7 8 6 6 8 8 8 6 6 6 6 9 13 18 19 18 18 19 22
25 26 68 55 97 92 99 100 100 100 76 76 68 76 86 68 73 81 86 77 52 36 22 14 6 4 5 8 7 8 10 6 6 8 6 6 5 5 5 5 6 7 8 16
42 30 55 80 76 67 68 90 92 100 84 70 77 100 100 94 93 91 85 84 69 36 34 43 43 49 50 42 47 28 24 52 45 14 19 22 26 33 34 26 17 9 8 7
53 73 57 48 69 79 84 83 91 92 79 68 40 57 78 100 100 100 100 93 66 80 96 82 73 66 69 78 89 100 97 80 56 33 31 38 35 60 79 57 28 27 22 16
77 64 66 80 98 92 81 76 31 48 36 23 25 47 92 90 92 100 95 90 100 91 85 88 97 93 100 100 97 100 88 80 70 67 63 64 88 88 97 22 11 9 15 23
49 68 76 82 91 69 47 34 37 31 77 73 100 99 100 100 100 82 94 100 100 88 96 100 100 100 100 100 98 100 98 91 78 71 67 79 97 97 68 54 35 45 23 26
67 75 84 82 41 29 38 96 99 40 46 81 96 84 71 83 100 100 100 100 98 99 100 100 100 100 100 100 100 100 98 98 97 86 91 96 98 94 98 55 68 73 77 85
82 87 69 15 7 10 18 58 64 62 86 97 95 98 89 99 100 100 100 100 99 100 100 100 100 100 100 100 100 99 100 97 99 98 96 93 97 98 98 82 89 86 98 99
86 49 12 11 27 33 46 52 34 44 77 74 78 82 100 100 100 100 98 100 100 100 100 100 100 98 84 81 66 45 87 90 97 100 94 97 100 100 100 97 90 100 99 99
37 7 9 32 52 64 55 54 53 56 72 96 96 100 100 100 100 98 100 100 100 100 100 100 83 77 56 49 50 60 69 90 98 96 98 99 99 100 99 97 96 98 99 86
7 10 20 48 78 69 68 55 61 98 100 100 99 100 100 100 95 100 100 100 100 100 100 100 95 44 36 47 62 68 60 68 78 73 88 99 99 100 99 100 99 94 84 86
12 24 56 65 100 88 70 82 99 100 100 100 100 100 100 99 98 98 100 100 100 100 100 100 94 78 56 36 30 28 28 28 27 34 45 66 98 99 99 100 100 100 99 96
21 56 74 100 100 95 100 98 100 100 100 100 100 100 89 79 90 90 95 95 99 100 100 86 78 72 50 43 48 38 47 49 80 64 47 33 48 94 98 98 100 99 99 100
31 80 82 100 99 92 82 92 98 98 99 98 100 100 86 58 72 70 73 71 75 78 87 85 86 72 75 74 75 70 66 90 91 73 68 73 79 73 77 89 98 98 100 98
86 53 83 100 99 83 96 100 94 88 98 98 100 93 64 48 43 53 61 66 70 79 83 85 89 95 94 84 77 75 61 63 63 59 54 48 43 43 38 46 78 96 98 99
92 74 90 100 96 98 88 100 99 96 100 100 92 50 41 33 38 64 59 67 72 93 99 94 93 92 86 75 65 56 41 35 26 24 21 15 14 14 15 17 16 15 33 51
68 52 60 78 81 98 92 94 100 98 100 100 71 40 28 29 48 62 60 62 82 94 92 88 86 84 77 64 48 37 23 17 13 12 13 14 16 17 14 12 13 13 13 13
62 61 57 63 90 92 81 79 97 92 100 98 46 34 27 27 39 42 47 53 59 62 66 73 80 84 84 68 41 22 15 14 13 14 15 16 16 16 14 11 10 10 9 10
53 66 60 60 75 100 88 86 85 76 99 81 34 23 24 28 35 38 35 38 43 55 56 62 76 78 66 44 25 18 16 14 13 15 14 15 16 17 15 14 13 12 12 11

GFSCGP_500_rhum_123.txt.gz
RH
28 32 37 39 28 28 30 31 29 28 32 49 40 19 23 36 29 54 98 98 86 75 32 10 19 39 32 26 23 32 56 57 62 58 50 40 35 30 25 21 36 41 56 74
37 34 40 37 29 31 32 33 33 32 44 48 30 22 30 38 68 100 89 87 76 68 61 48 43 37 37 36 56 51 40 50 57 62 66 57 42 34 28 18 14 16 29 63
36 37 36 31 32 33 33 36 41 38 39 31 27 13 15 13 58 95 76 62 64 63 59 55 54 56 68 66 66 68 69 64 57 54 50 56 62 59 47 27 19 15 18 30
40 40 38 38 42 54 32 59 50 36 28 30 25 30 19 37 75 84 87 77 65 59 62 94 99 90 71 73 77 74 66 65 62 56 51 52 51 50 57 55 44 29 18 18
44 46 42 34 41 54 32 38 45 43 32 34 6 91 85 76 82 69 51 54 63 82 92 100 94 93 92 88 84 79 68 57 58 56 47 50 53 55 55 54 52 49 28 23
44 41 33 27 23 30 17 19 26 38 46 47 32 99 90 85 63 50 45 45 58 60 70 67 62 66 70 64 55 53 56 60 54 58 57 47 48 56 56 56 53 51 47 32
36 27 23 20 13 12 26 55 46 36 48 64 80 91 100 73 64 53 58 69 69 68 84 83 77 70 60 53 49 43 44 49 50 48 52 53 48 47 58 67 54 48 48 47
20 14 17 13 12 10 10 48 78 83 68 68 75 77 92 75 61 78 88 98 100 96 80 76 74 47 21 19 13 11 11 22 22 26 28 33 37 44 41 42 62 54 48 46
14 10 14 20 39 32 39 42 90 100 82 78 55 74 79 54 63 72 80 79 82 79 67 66 40 14 11 13 10 8 6 5 4 4 4 4 5 6 7 9 18 44 46 38
10 9 25 45 35 55 73 90 74 97 93 72 53 94 98 91 100 100 100 100 95 84 72 80 62 73 69 58 51 40 39 40 48 40 20 19 18 10 10 6 4 5 17 24
10 25 44 46 43 80 98 82 87 94 94 81 62 68 83 90 76 85 86 100 100 100 74 72 85 73 77 81 77 83 86 89 88 90 83 58 26 23 31 31 28 35 34 21
18 53 38 47 44 63 82 82 98 95 71 55 53 50 53 44 51 97 100 93 76 73 76 85 85 97 100 98 100 100 100 100 100 98 75 58 52 52 45 73 90 87 95 99
29 76 66 37 47 70 74 79 75 59 53 61 43 27 74 75 96 100 98 90 82 84 95 98 100 100 100 100 100 100 100 99 100 94 79 65 59 66 84 86 88 88 63 56
64 67 57 71 79 77 78 64 29 49 67 82 58 53 70 78 88 84 85 99 98 100 100 100 100 100 100 100 100 99 100 100 92 97 70 54 57 78 97 75 90 66 83 69
56 71 91 80 84 67 32 10 12 67 100 53 61 88 82 81 87 91 100 99 100 100 100 100 100 100 100 100 100 100 100 99 100 98 74 64 64 79 95 99 97 85 94 95
92 90 86 84 60 26 8 23 29 45 49 34 61 68 75 85 99 100 100 100 100 100 100 100 100 100 100 100 100 97 100 100 100 99 100 93 99 95 93 97 99 90 99 98
98 97 93 52 15 8 25 64 74 74 59 57 80 99 89 100 100 100 100 100 100 100 100 100 100 95 93 100 100 98 79 84 77 73 99 100 96 94 98 100 99 100 92 99
100 90 71 9 9 21 52 72 62 54 93 96 96 93 99 98 100 100 100 100 100 100 99 100 100 100 98 92 86 56 45 42 42 49 72 98 100 100 100 100 100 99 94 88
95 63 8 11 23 54 72 67 77 94 100 100 100 100 100 100 100 100 99 100 100 100 100 100 100 100 100 87 86 59 67 70 91 89 64 78 98 100 100 100 100 100 100 96
45 8 10 18 49 64 66 99 100 90 100 100 100 100 100 100 100 100 100 100 100 100 100 100 100 100 100 100 91 71 73 73 73 81 69 62 52 66 89 100 100 100 100 100
42 23 19 51 68 72 79 86 95 89 99 100 100 100 100 96 98 84 88 89 92 100 100 100 100 100 97 90 78 59 53 30 32 30 27 18 15 15 22 24 58 89 96 97
100 89 55 43 82 62 78 84 92 100 100 98 100 100 100 76 86 62 75 88 89 96 100 100 100 94 79 71 60 46 28 22 23 18 15 14 16 18 20 21 20 18 17 22
93 92 85 72 71 95 92 99 87 99 100 100 100 99 83 63 69 63 79 88 89 93 100 100 93 75 66 56 40 31 20 18 18 17 16 16 19 21 22 20 18 14 13 13
100 86 58 68 89 91 100 82 92 100 100 100 100 97 72 47 55 74 90 86 90 97 100 93 85 82 79 72 55 35 22 20 17 16 14 14 16 15 14 12 10 10 10 10
68 62 57 58 58 61 62 77 91 95 100 98 100 96 50 48 61 81 90 75 89 99 95 89 85 81 72 66 50 25 20 18 15 14 14 14 15 20 20 20 21 18 14 10
36 66 65 66 62 62 71 79 78 74 84 100 100 86 48 45 51 61 76 77 72 73 69 68 75 73 71 58 44 26 26 22 16 16 16 16 16 16 17 16 15 18 19 17

GFSCGP_500_rhum_126.txt.gz
RH
25 24 32 32 32 33 32 32 36 37 33 30 30 30 35 42 48 56 53 40 30 18 12 9 9 10 19 39 51 47 44 37 30 20 26 21 59 54 47 46 38 27 20 66
32 27 32 32 33 32 32 34 36 34 31 30 28 26 47 69 86 65 60 67 62 41 40 38 31 26 30 41 44 41 47 47 37 29 20 25 35 61 56 47 44 42 33 19
30 36 38 40 40 39 37 35 33 32 30 31 27 19 26 44 38 26 19 15 19 30 42 53 57 58 55 46 43 42 47 47 49 46 31 26 41 47 60 58 50 44 42 36
39 51 49 46 42 43 40 40 36 32 29 23 18 15 13 16 20 14 21 36 50 65 79 71 69 55 43 35 32 34 54 72 69 63 53 56 62 52 58 60 64 55 48 42
44 44 44 42 47 46 43 38 30 27 26 17 16 33 10 11 10 11 22 54 76 80 66 54 41 42 46 49 48 57 74 80 92 99 78 68 63 60 62 62 54 62 62 55
50 48 43 44 44 41 31 22 16 14 12 11 17 34 9 9 16 47 72 72 74 73 64 59 63 63 64 65 67 68 66 56 50 48 49 46 56 54 57 61 59 53 54 55
50 45 43 36 31 23 17 14 13 12 11 10 12 25 19 22 42 62 66 63 61 68 69 72 82 95 85 83 83 80 68 60 47 47 46 47 44 39 42 50 54 60 54 53
49 42 31 24 19 15 12 13 27 31 19 14 14 36 31 34 44 52 54 56 63 63 68 76 81 78 75 66 41 26 11 7 5 6 30 31 41 47 53 50 51 52 58 60
37 27 20 16 12 14 33 27 41 56 35 39 31 41 47 56 58 56 71 78 75 72 72 72 62 42 36 24 15 19 21 23 13 7 4 4 6 27 32 39 47 51 52 55
25 21 15 13 14 47 66 71 86 100 68 56 43 62 80 75 63 62 72 89 90 94 89 78 31 34 31 40 50 40 35 60 52 42 33 14 7 3 4 6 11 18 24 35
20 15 17 17 25 74 85 75 85 81 56 65 56 59 84 72 68 69 64 47 54 54 65 62 41 45 75 64 74 66 96 100 93 70 65 76 75 66 32 17 11 7 7 5
20 11 10 18 34 71 92 79 70 64 68 72 67 52 66 60 48 49 42 54 82 75 59 68 76 93 85 86 90 100 100 100 100 98 90 76 75 58 41 25 28 29 28 32
14 14 22 16 19 60 79 87 99 89 78 70 62 50 66 46 36 54 74 83 88 69 74 88 100 98 100 99 100 99 100 98 100 92 96 91 76 74 68 68 84 86 92 96
9 8 15 20 28 59 81 89 99 86 72 32 21 49 56 54 70 85 86 80 70 92 88 98 100 100 100 100 98 99 100 97 97 97 88 79 69 72 92 89 97 92 85 71
8 25 24 39 81 97 81 84 91 41 16 10 29 30 30 57 80 77 82 100 96 94 97 100 100 99 100 100 100 100 100 96 96 98 98 90 90 98 99 97 99 99 87 75
30 32 34 70 100 82 78 86 32 14 24 26 32 48 61 66 83 82 99 100 100 100 100 100 100 97 100 100 100 100 100 100 88 100 100 95 100 99 98 97 84 96 99 98
31 49 71 74 94 91 82 21 13 34 40 39 44 76 91 88 80 94 100 100 100 100 100 99 96 100 97 100 100 96 85 71 89 91 100 100 100 100 100 100 100 97 98 96
35 96 91 92 94 74 22 12 43 54 51 81 99 99 99 82 90 100 100 100 100 100 100 99 100 100 100 100 100 96 80 84 81 73 62 100 100 100 100 100 100 100 100 100
87 99 94 87 77 17 10 29 59 70 95 94 88 97 100 94 100 100 100 100 100 100 99 100 100 100 100 100 95 82 66 51 40 34 33 32 65 76 81 100 100 100 100 100
95 99 96 90 12 12 26 82 89 92 100 86 91 100 97 95 100 100 100 100 100 100 100 100 100 100 100 78 52 42 33 19 15 18 15 14 16 17 17 20 32 57 83 92
96 93 63 23 11 13 48 80 87 79 88 86 91 100 95 100 100 100 100 100 100 100 100 100 98 93 66 46 37 30 21 15 12 13 15 16 19 21 23 26 22 20 17 20
94 98 87 77 45 21 61 91 78 81 92 91 90 100 98 98 100 100 98 100 100 100 100 100 90 62 51 44 34 31 24 13 15 17 19 19 20 23 24 18 13 12 11 11
99 99 100 82 80 68 41 90 100 92 91 96 90 100 100 99 92 70 70 84 100 100 100 94 73 61 45 38 27 24 19 12 15 14 15 16 18 18 16 15 13 12 11 12
100 100 100 99 81 65 98 94 93 96 89 100 95 99 100 99 80 81 76 85 98 100 100 92 76 63 45 32 29 26 22 18 20 22 17 15 17 15 14 15 15 15 16 17
97 98 100 100 94 45 39 58 93 82 77 98 100 100 100 99 71 84 93 96 99 97 96 87 73 62 45 38 38 26 22 20 20 21 16 16 14 15 18 18 17 16 14 15
99 100 100 81 51 63 51 48 46 52 72 88 97 100 100 96 87 81 98 100 100 100 100 93 80 65 57 52 46 30 25 28 35 24 18 19 18 16 16 17 16 18 18 18

GFSCGP_500_rhum_129.txt.gz
RH
58 27 28 22 21 26 28 28 25 27 30 28 34 36 36 34 31 31 32 34 28 25 24 20 17 15 12 10 9 10 8 9 16 16 21 29 28 26 29 43 40 42 44 40
37 37 41 36 35 35 33 30 31 31 33 32 35 35 33 32 34 36 41 49 51 39 29 25 21 15 11 10 11 13 15 16 12 13 17 24 36 33 26 27 38 60 55 45
39 38 36 33 33 35 36 36 37 35 36 36 37 37 35 34 33 29 29 29 29 26 21 17 15 15 18 18 16 16 19 30 38 31 29 30 30 36 38 34 26 30 56 60
32 44 43 42 43 46 37 44 42 40 37 34 34 30 28 25 22 20 20 19 17 16 14 14 14 15 17 28 47 50 46 30 24 24 25 20 21 25 39 26 30 35 38 56
42 44 44 43 45 44 42 41 40 39 39 36 31 26 21 19 16 13 11 11 10 13 21 38 50 54 58 59 54 44 34 40 37 40 43 40 34 24 33 39 45 29 34 48
42 45 42 43 48 50 48 46 44 38 32 29 22 19 15 13 12 11 13 19 31 55 72 74 70 61 51 43 39 38 38 42 47 46 49 44 36 31 31 30 29 50 45 38
41 42 48 50 49 50 46 40 34 30 23 19 17 14 12 10 10 12 24 28 33 40 46 50 44 36 33 32 37 46 48 49 46 24 11 14 23 32 34 33 29 32 49 58
49 46 53 53 48 40 33 25 20 20 17 15 14 13 12 15 18 38 53 58 59 53 45 43 53 63 64 61 56 37 17 15 10 8 7 5 4 4 4 22 33 37 41 47
56 55 56 50 33 27 24 23 24 41 28 29 16 15 14 15 30 49 60 67 61 56 56 60 68 73 68 42 15 14 17 18 32 34 31 20 7 3 3 11 28 29 43 52
65 66 54 40 28 22 25 29 37 56 73 50 15 16 19 21 51 71 63 61 56 57 53 40 29 25 23 20 20 30 50 64 81 86 73 62 56 55 27 6 4 8 27 39
72 64 45 37 34 24 20 18 32 74 69 92 54 21 37 55 71 62 58 40 29 28 28 25 28 32 48 61 62 85 98 96 91 73 78 62 65 77 82 75 30 7 4 6
68 46 38 33 25 20 22 23 27 64 48 74 73 23 61 81 68 64 41 24 34 38 34 42 50 71 78 80 100 100 99 100 86 87 95 89 84 69 83 79 72 45 26 12
45 39 41 31 27 22 29 24 29 57 62 46 84 54 68 38 39 38 31 50 52 58 60 55 71 83 96 99 100 100 100 100 98 92 98 98 97 91 88 62 35 24 22 22
54 56 41 23 16 16 18 24 50 91 68 74 70 55 27 21 32 32 47 73 71 83 92 88 87 97 100 100 100 100 100 97 98 98 99 100 100 100 91 84 82 97 91 86
76 64 47 26 13 15 14 20 73 91 85 72 56 26 21 33 53 59 69 73 85 98 98 98 96 100 100 100 100 100 100 96 100 100 99 100 100 99 100 100 100 100 99 88
96 89 69 35 20 23 15 39 93 90 94 69 20 21 37 45 55 72 80 87 100 99 98 100 100 100 89 98 100 100 100 99 100 100 100 100 100 99 99 100 99 98 100 100
87 66 48 20 13 15 34 92 83 81 38 18 30 38 49 61 72 67 74 88 93 94 99 100 100 98 100 100 100 100 100 98 88 92 100 100 100 100 100 100 99 99 97 94
42 34 18 11 16 39 84 78 64 18 16 42 37 68 67 78 88 68 87 92 90 98 100 100 100 96 100 100 100 96 80 52 19 16 25 67 59 53 83 95 97 100 100 100
48 21 20 29 49 77 87 69 12 16 57 62 70 87 78 82 91 92 97 93 96 100 99 100 98 100 100 100 99 80 30 15 13 14 15 19 22 23 22 20 19 26 55 65
38 38 61 85 81 76 68 18 34 66 80 78 89 85 75 84 94 96 97 99 99 100 100 100 100 100 100 95 33 15 14 14 14 14 15 16 18 18 16 14 12 11 11 10
42 87 100 99 87 74 27 27 76 82 76 70 75 79 83 85 94 99 100 100 100 99 95 100 100 99 67 24 16 14 15 19 18 17 15 18 19 19 18 18 16 13 11 11
100 99 96 94 87 81 57 36 64 78 86 70 66 75 83 90 99 100 100 100 100 97 100 100 100 78 29 17 16 16 16 15 18 15 14 19 22 22 19 16 14 13 12 12
100 100 99 100 100 100 92 70 49 85 77 72 71 74 82 87 100 100 100 100 100 100 100 100 83 40 26 22 14 16 15 15 21 16 14 14 16 18 20 18 17 15 12 14
100 100 100 100 100 100 100 86 58 51 78 83 85 80 89 93 100 100 100 95 100 100 100 100 73 43 29 20 17 15 13 18 16 15 20 22 21 22 20 17 14 14 14 16
100 99 100 100 100 100 100 98 85 58 86 87 88 80 90 100 100 100 100 100 100 100 100 94 70 51 39 28 21 20 17 18 18 19 25 20 20 21 20 20 21 22 21 20
100 100 100 99 100 94 100 97 55 46 32 73 84 78 90 98 100 100 97 99 100 100 100 97 77 58 51 37 32 24 27 25 22 29 26 24 23 22 21 20 22 24 22 19

GFSCGP_500_rhum_132.txt.gz
RH
51 47 58 45 37 35 35 34 32 28 32 31 31 29 28 27 27 28 29 29 30 30 30 29 25 22 21 20 18 17 16 15 14 12 11 9 8 6 6 8 15 27 23 16
36 35 38 35 35 34 34 32 33 31 32 29 30 28 26 27 30 32 37 39 39 37 34 31 27 23 19 17 15 14 12 12 10 10 9 8 9 9 8 8 10 18 14 12
33 37 40 39 35 35 32 31 32 29 32 34 32 26 31 33 33 36 41 40 36 31 27 24 20 18 17 15 13 12 10 8 8 7 7 9 12 19 31 34 25 19 26 30
28 37 39 38 40 42 32 41 34 34 34 33 35 25 28 32 32 33 32 28 22 18 16 13 11 10 9 8 7 7 9 15 23 23 25 31 37 40 36 30 29 30 26 30
35 38 39 42 43 43 44 48 48 46 44 39 37 37 22 27 28 27 23 19 16 14 12 10 10 9 10 11 13 26 41 50 51 47 45 49 46 34 25 21 18 16 25 22
42 39 39 44 42 44 46 46 48 49 46 33 34 38 20 26 26 22 18 17 15 13 12 14 19 22 23 22 18 30 43 38 32 27 25 21 21 27 27 23 20 22 33 33
42 44 47 49 47 48 49 52 51 47 46 43 38 34 28 27 22 19 19 21 17 13 18 29 33 35 32 25 27 31 38 47 44 42 37 30 27 26 23 18 11 8 23 31
54 53 53 50 51 55 56 56 54 48 42 37 34 29 24 22 20 18 21 24 24 29 33 36 45 49 47 48 46 47 47 34 13 7 6 5 6 8 11 6 5 4 5 19
58 58 58 58 60 66 58 52 44 38 33 29 29 25 23 19 18 18 27 34 39 41 46 47 46 37 32 23 15 12 11 8 7 10 31 41 59 73 93 66 34 7 4 3
63 63 60 60 65 66 60 47 39 34 33 26 24 20 17 13 17 31 65 72 57 56 55 44 24 11 8 9 11 14 28 55 74 68 57 58 63 86 99 92 70 60 12 4
81 74 66 68 70 64 53 45 36 27 26 33 20 18 13 19 45 78 85 71 53 53 34 19 18 17 16 27 53 78 100 99 87 65 46 44 74 100 100 99 97 96 76 26
62 80 84 81 73 59 38 36 32 26 24 20 18 13 17 45 81 91 75 50 37 37 23 34 55 39 35 72 87 100 100 100 99 62 49 64 97 99 100 100 100 96 95 78
71 92 87 79 61 51 46 40 24 18 16 14 40 14 64 71 68 51 29 21 33 30 47 66 88 89 82 96 99 100 100 100 95 83 84 94 100 100 100 92 76 78 53 51
91 93 89 67 60 60 58 42 30 16 13 31 12 44 80 79 50 26 19 30 56 72 73 91 100 98 95 100 100 100 100 99 96 91 100 100 100 100 100 100 100 100 100 100
98 86 76 61 65 80 62 42 34 21 17 24 30 56 68 38 24 23 33 54 63 73 90 100 100 100 100 100 100 100 100 100 100 100 100 100 100 100 100 100 99 100 100 100
96 91 85 80 95 86 55 39 25 17 13 46 69 65 39 20 31 37 52 65 60 70 90 96 100 100 100 100 100 100 100 100 100 100 100 100 100 100 100 100 100 100 100 100
98 81 86 94 100 100 58 27 29 20 51 75 73 31 25 33 59 78 88 69 61 83 79 90 97 100 100 100 100 100 87 93 87 90 87 56 76 77 84 97 99 100 100 100
98 97 100 93 81 59 32 28 23 34 76 79 19 26 39 69 73 85 91 67 86 89 75 83 98 100 100 100 100 89 85 38 40 14 17 18 17 15 14 12 11 16 40 60
96 100 97 81 58 40 21 37 55 59 70 26 24 45 63 76 74 78 83 87 95 83 80 92 99 100 100 100 100 97 56 27 15 17 18 17 16 15 14 14 14 13 12 11
97 94 100 88 58 27 34 75 74 79 40 48 55 74 86 81 80 80 86 88 89 91 92 96 100 100 100 100 95 27 17 16 18 20 19 18 18 17 17 14 14 13 12 12
88 93 93 80 53 24 95 94 86 53 48 48 71 74 72 76 83 82 94 94 96 100 100 100 100 100 100 92 27 15 16 19 23 28 27 20 19 18 17 18 18 16 14 12
100 95 85 62 67 86 100 99 94 44 37 59 62 64 64 71 72 86 93 99 99 100 100 100 99 100 98 36 15 14 16 20 24 32 27 19 15 17 18 17 21 20 20 16
53 99 79 57 95 100 100 100 95 78 55 41 58 60 66 72 69 85 92 100 100 100 100 94 100 98 36 18 16 17 16 20 19 23 22 16 16 19 25 27 27 26 23 22
100 84 58 81 100 99 96 100 99 93 91 68 50 58 77 80 83 87 93 100 100 98 100 100 100 92 33 23 16 14 16 22 21 19 16 19 29 28 30 28 26 26 24 24
35 85 100 96 100 99 100 100 99 97 98 74 45 49 72 89 80 88 96 100 100 100 100 100 100 82 35 27 20 19 20 18 17 18 19 30 36 28 26 26 28 26 26 27
98 100 93 99 100 100 100 92 94 91 92 72 39 29 41 87 78 89 94 100 100 100 100 100 100 98 48 31 28 25 25 25 25 27 26 27 34 32 28 35 47 42 32 19

GFSCGP_500_rhum_135.txt.gz
RH
73 86 79 67 44 39 37 32 31 32 33 28 31 26 24 21 24 27 27 28 30 30 31 31 29 28 28 30 30 29 26 23 21 19 17 16 15 14 14 14 14 13 11 10
64 67 66 42 37 35 32 32 36 33 31 23 22 22 22 23 25 28 31 35 37 36 34 33 33 33 32 30 28 25 21 18 16 14 12 11 10 10 9 9 9 8 8 8
49 39 37 33 31 33 32 32 30 22 22 21 16 14 17 22 26 29 33 36 37 36 36 35 33 31 27 22 18 15 13 12 11 10 9 8 7 7 6 6 6 5 5 5
45 35 31 31 32 33 30 32 25 23 22 20 19 16 16 22 30 36 40 38 36 33 31 28 26 22 18 15 13 12 10 10 8 7 6 5 5 5 8 15 33 38 49 39
30 30 30 34 39 40 35 33 32 32 30 24 22 25 16 17 23 34 35 35 33 31 27 23 19 17 16 14 12 10 8 8 9 10 12 13 18 21 24 31 31 25 20 37
38 39 42 46 47 44 40 39 40 38 37 28 31 35 17 26 31 35 35 32 28 24 22 20 19 16 13 12 10 8 11 13 13 13 17 21 22 24 28 33 36 30 23 20
50 50 51 52 46 46 48 49 49 44 42 40 39 36 28 33 34 33 30 25 23 21 19 17 15 13 12 13 16 20 28 31 28 28 27 25 14 6 5 5 7 10 11 14
48 48 47 47 51 55 55 54 57 58 52 45 41 36 36 38 38 34 27 22 18 15 14 14 19 32 38 40 38 37 30 18 11 6 4 5 4 5 9 38 59 74 73 76
59 58 58 58 58 60 62 65 66 65 60 56 47 46 43 41 41 28 17 15 14 15 20 30 46 48 44 36 18 9 8 7 6 5 6 15 42 48 45 51 59 67 84 79
72 67 64 65 68 69 71 70 68 68 64 58 56 52 45 35 22 18 16 16 19 30 53 62 56 34 23 16 12 10 13 38 60 73 78 61 38 38 47 61 96 96 97 99
97 94 80 83 81 79 75 76 80 77 70 57 44 42 30 22 17 18 21 29 47 59 55 38 24 28 26 41 34 44 89 100 95 89 77 55 42 48 90 99 100 98 98 100
99 95 87 84 72 74 88 82 82 72 59 49 38 34 25 17 23 29 53 52 59 64 31 21 46 53 73 91 89 99 100 100 100 92 81 71 59 94 96 100 100 100 85 73
100 87 80 72 70 80 100 98 90 85 67 49 57 34 18 24 40 44 42 49 62 32 27 47 65 83 89 100 100 100 100 100 100 93 95 95 96 100 100 100 100 93 93 98
99 94 91 82 89 95 97 94 68 63 53 80 47 29 16 49 51 51 56 56 27 25 50 60 74 92 96 100 100 100 100 100 100 100 100 100 100 100 100 100 100 100 100 100
76 73 82 77 92 95 89 76 78 75 70 100 33 21 28 42 62 60 39 24 24 39 52 63 76 95 100 100 100 100 100 100 100 100 100 100 100 100 100 100 100 100 100 100
62 66 74 97 95 98 82 69 63 79 100 74 30 19 47 62 61 22 23 48 66 73 66 62 83 94 100 99 100 100 100 100 100 100 93 86 83 93 90 90 96 99 100 100
45 90 100 88 86 84 54 66 100 99 81 34 22 22 50 59 18 26 67 74 86 77 70 98 78 92 98 100 100 99 100 94 99 98 64 29 20 16 13 13 12 13 15 22
48 92 92 67 70 66 54 67 58 45 32 22 26 47 63 31 27 57 65 75 86 95 96 89 80 84 99 100 100 99 98 75 27 36 28 18 18 17 14 14 14 12 12 11
58 58 47 82 74 77 69 66 65 36 26 42 56 62 58 25 47 65 73 78 84 85 94 90 82 88 99 100 100 99 58 91 46 24 22 20 18 18 17 16 14 13 13 13
21 30 64 90 100 77 54 65 46 28 49 72 65 67 38 45 61 67 77 85 88 90 96 92 92 98 100 100 100 98 70 34 24 22 25 24 22 19 17 16 15 14 13 13
23 99 100 97 85 54 59 64 41 76 88 78 59 45 50 58 53 53 70 86 96 97 97 94 100 100 100 100 100 68 24 23 24 22 27 31 24 20 18 17 19 19 19 18
58 100 84 92 80 51 77 55 68 97 97 84 62 33 51 60 56 57 69 81 98 96 93 97 100 100 100 100 98 37 23 22 25 24 24 29 27 20 18 20 25 28 27 27
27 68 79 67 55 78 82 53 79 99 100 92 70 49 37 49 53 59 72 81 98 97 97 96 100 100 100 100 87 24 24 20 24 29 27 24 23 21 20 23 28 27 28 27
14 28 32 40 60 96 80 85 91 90 94 90 86 78 59 36 44 58 75 83 92 99 98 98 100 100 100 100 61 19 20 21 19 22 26 21 17 24 35 30 28 30 35 35
14 31 30 18 42 78 86 80 82 89 100 100 93 83 74 41 32 47 73 84 92 93 100 96 98 100 100 98 37 21 20 20 20 22 20 18 20 22 39 38 36 34 41 36
13 11 10 12 79 91 84 76 96 100 100 100 98 88 50 28 24 21 45 83 87 94 98 100 100 100 100 99 58 28 26 22 22 24 26 26 29 32 31 40 46 42 49 45